This demonstration page uses our WeatherBlox Daily Observations layout. Learn more.

Left ArrowRight Arrow

36.17497, -115.13722

Hourly Observations for July 14, 2020

Temp ( °F °C ) Dew Point ( °F °C ) Humidity (%) Winds ( mph kmh ) Pressure ( in mb ) Visibility ( mi km ) Precip ( " mm )
12:53 am 00:53 Clear 95 35 32 0 11 11 SSW 15 24 29.70 1006 10 16 0.00 0.00
1:53 am 01:53 Clear 93 33.9 31 -0.6 11 11 SSW 14 22 29.70 1006 10 16 0.00 0.00
2:53 am 02:53 Clear 92 33.3 32 0 12 12 S 13 20 29.69 1006 10 16 0.00 0.00
3:53 am 03:53 Clear 92 33.3 33 0.6 12 12 S 15 24 29.69 1006 10 16 0.00 0.00
4:53 am 04:53 Clear 91 32.8 32 0 12 12 S 12 19 29.71 1006 10 16 0.00 0.00
5:53 am 05:53 Sunny 89 31.7 32 0 13 13 VRB 3 6 29.75 1007 10 16 0.00 0.00
6:53 am 06:53 Sunny 90 32.2 33 0.6 13 13 W 5 7 29.77 1008 10 16 0.00 0.00
7:53 am 07:53 Sunny 91 32.8 34 1.1 13 13 VRB 3 6 29.78 1009 10 16 0.00 0.00
8:53 am 08:53 Sunny 93 33.9 35 1.7 13 13 Calm 29.80 1009 10 16 0.00 0.00
9:53 am 09:53 Sunny 97 36.1 28 -2.2 9 9 VRB 3 6 29.79 1009 10 16 0.00 0.00
10:53 am 10:53 Sunny 102 38.9 5 -15 3 3 S 22 35 29.78 1009 10 16 0.00 0.00
11:53 am 11:53 Sunny 105 40.6 -3 -19.4 2 2 S 17 28 29.78 1008 10 16 0.00 0.00
12:53 pm 12:53 Sunny 106 41.1 -6 -21.1 1 1 S 21 33 29.78 1008 10 16 0.00 0.00
1:53 pm 13:53 Sunny 106 41.1 -2 -18.9 2 2 SSW 20 31 29.76 1008 10 16 0.00 0.00
2:53 pm 14:53 Sunny 108 42.2 1 -17.2 2 2 S 20 31 29.74 1007 10 16 0.00 0.00
3:53 pm 15:53 Sunny 108 42.2 10 -12.2 3 3 SSW 18 30 29.72 1006 10 16 0.00 0.00
4:53 pm 16:53 Sunny 108 42.2 17 -8.3 4 4 S 17 28 29.70 1006 10 16 0.00 0.00
5:53 pm 17:53 Sunny 107 41.7 12 -11.1 3 3 SW 15 24 29.70 1006 10 16 0.00 0.00
6:53 pm 18:53 Sunny 105 40.6 14 -10 4 4 SSW 17 28 29.69 1005 10 16 0.00 0.00
7:53 pm 19:53 Sunny 103 39.4 15 -9.4 4 4 SSW 10 17 29.69 1006 10 16 0.00 0.00
8:53 pm 20:53 Clear 100 37.8 17 -8.3 5 5 S 10 17 29.70 1006 10 16 0.00 0.00
9:53 pm 21:53 Clear 98 36.7 17 -8.3 5 5 S 14 22 29.70 1006 10 16 0.00 0.00
10:53 pm 22:53 Clear 96 35.6 16 -8.9 5 5 S 13 20 29.71 1006 10 16 0.00 0.00
11:53 pm 23:53 Clear 92 33.3 21 -6.1 7 7 Calm 29.73 1007 10 16 0.00 0.00

Powered by AerisWeather